Lapeer, MI

6:09 PM EDT on May 22, 2018 (GMT -0400)
Lapeer

Weather History for KD95 - October, 2013

Change the Weather History Date:

Wednesday, October 30, 2013

  Actual Average (WUND) Record (WUND)
Temperature  
Mean Temperature 45 °F -  
Max Temperature 62 °F - - (-1)
Min Temperature 28 °F - - (-1)
Degree Days  
Heating Degree Days 20    
Moisture  
Dew Point 38 °F    
Average Humidity 79    
Maximum Humidity 100    
Minimum Humidity 48    
Precipitation  
Precipitation 0.00 in - - ()
Sea Level Pressure  
Sea Level Pressure 30.13 in    
Wind  
Wind Speed 1 mph (SSE)    
Max Wind Speed 8 mph    
Max Gust Speed -    
Visibility 9 miles    
Events Rain    
Averages and records for this station are not official NWS values.
T = Trace of Precipitation, MM = Missing Value Source: NWS Daily Summary

Daily Weather History Graph

Daily Weather History Graph

Search for Another Location

Airport or City:

Astronomy

Oct. 30, 2013 Rise Set
Actual Time 8:05 AM EDT 6:27 PM EDT
Civil Twilight 7:36 AM EDT 6:56 PM EDT
Nautical Twilight 7:02 AM EDT 7:30 PM EDT
Astronomical Twilight 6:29 AM EDT 8:03 PM EDT
Moon 3:47 AM EDT (10/30) 4:17 PM EDT (10/30)
Length of Visible Light 11h 20m
Length of Day
10h 21m
Waning Crescent, 17% of the Moon is Illuminated
Oct 30
Waning Crescent
Nov 3
New
Nov 10
First Quarter
Nov 17
Full
Nov 25
Last Quarter

Hourly Weather History & Observations

Time (EDT) Temp. Windchill Dew Point Humidity Pressure Visibility Wind Dir Wind Speed Gust Speed Precip Events Conditions
12:14 AM 34.2 °F - 32.4 °F 93% 30.24 in 10.0 mi Calm Calm - N/A   Clear
12:33 AM 32.4 °F - 31.6 °F 97% 30.23 in 10.0 mi Calm Calm - N/A   Clear
12:54 AM 32.2 °F - 32.0 °F 99% 30.23 in 10.0 mi Calm Calm - N/A   Clear
1:14 AM 32.4 °F - 32.0 °F 99% 30.23 in 10.0 mi Calm Calm - N/A   Clear
1:33 AM 32.5 °F - 32.2 °F 99% 30.22 in 10.0 mi Calm Calm - N/A   Clear
1:54 AM 32.7 °F - 32.2 °F 98% 30.22 in 10.0 mi Calm Calm - N/A   Clear
2:14 AM 32.0 °F - 32.0 °F 100% 30.21 in 10.0 mi Calm Calm - N/A   Clear
2:33 AM 31.8 °F 28.5 °F 31.5 °F 99% 30.20 in 10.0 mi South 3.5 mph - N/A   Clear
2:54 AM 32.0 °F - 32.0 °F 100% 30.21 in 10.0 mi Calm Calm - N/A   Clear
3:14 AM 31.5 °F - 31.3 °F 99% 30.20 in 10.0 mi Calm Calm - N/A   Scattered Clouds
3:34 AM 30.9 °F - 30.9 °F 100% 30.20 in 10.0 mi Calm Calm - N/A   Clear
3:54 AM 30.2 °F - 30.2 °F 100% 30.20 in 7.0 mi Calm Calm - N/A   Clear
4:14 AM 30.2 °F - 30.2 °F 100% 30.20 in 10.0 mi Calm Calm - N/A   Clear
4:34 AM 30.2 °F - 30.2 °F 100% 30.19 in 7.0 mi North - - N/A   Clear
4:54 AM 30.2 °F - 30.2 °F 100% 30.18 in 7.0 mi Calm Calm - N/A   Clear
5:14 AM 29.8 °F - 29.8 °F 100% 30.18 in 5.0 mi Calm Calm - N/A   Clear
5:34 AM 29.5 °F - 29.5 °F 100% 30.17 in 7.0 mi Calm Calm - N/A   Clear
5:54 AM 28.4 °F - 28.4 °F 100% 30.18 in 7.0 mi Calm Calm - N/A   Clear
6:14 AM 29.3 °F - 29.3 °F 100% 30.18 in 7.0 mi Calm Calm - N/A   Clear
6:34 AM 28.8 °F - 28.8 °F 100% 30.18 in 7.0 mi Calm Calm - N/A   Clear
6:54 AM 28.6 °F - 28.6 °F 100% 30.18 in 7.0 mi Calm Calm - N/A   Clear
7:14 AM 29.8 °F - 29.8 °F 100% 30.18 in 7.0 mi Calm Calm - N/A   Clear
7:34 AM 30.0 °F - 30.0 °F 100% 30.18 in 7.0 mi Calm Calm - N/A   Clear
7:54 AM 28.2 °F - 28.2 °F 100% 30.17 in 7.0 mi Calm Calm - N/A   Clear
8:13 AM 28.2 °F - 28.2 °F 100% 30.18 in 5.0 mi Calm Calm - N/A   Clear
8:34 AM 29.1 °F - 29.1 °F 100% 30.18 in 5.0 mi Calm Calm - N/A   Clear
8:54 AM 29.8 °F - 29.8 °F 100% 30.19 in 7.0 mi Calm Calm - N/A   Clear
9:13 AM 31.6 °F - 31.6 °F 100% 30.18 in 5.0 mi Calm Calm - N/A   Clear
9:34 AM 34.5 °F - 34.5 °F 100% 30.19 in 5.0 mi Calm Calm - N/A   Clear
9:54 AM 38.7 °F - 37.9 °F 97% 30.19 in 5.0 mi Calm Calm - N/A   Clear
10:13 AM 41.4 °F - 39.6 °F 93% 30.19 in 7.0 mi Calm Calm - N/A   Clear
10:34 AM 44.6 °F - 41.4 °F 88% 30.19 in 10.0 mi Calm Calm - N/A   Clear
10:54 AM 47.3 °F - 42.4 °F 83% 30.18 in 10.0 mi Calm Calm - N/A   Clear
11:14 AM 50.2 °F - 43.9 °F 79% 30.18 in 10.0 mi Calm Calm - N/A   Clear
11:33 AM 52.3 °F - 43.5 °F 72% 30.17 in 10.0 mi Calm Calm - N/A   Clear
11:54 AM 54.0 °F - 41.7 °F 63% 30.17 in 10.0 mi Calm Calm - N/A   Clear
12:14 PM 55.6 °F - 42.4 °F 61% 30.18 in 10.0 mi SSW 3.5 mph - N/A   Clear
12:33 PM 56.8 °F - 41.4 °F 56% 30.17 in 10.0 mi SSE 3.5 mph - N/A   Clear
12:54 PM 57.7 °F - 41.5 °F 55% 30.16 in 10.0 mi SSE 3.5 mph - N/A   Clear
1:14 PM 57.2 °F - 41.4 °F 55% 30.15 in 10.0 mi Calm Calm - N/A   Clear
1:34 PM 58.6 °F - 41.2 °F 52% 30.13 in 10.0 mi Calm Calm - N/A   Scattered Clouds
1:54 PM 59.7 °F - 41.5 °F 51% 30.12 in 10.0 mi Calm Calm - N/A   Scattered Clouds
2:13 PM 60.6 °F - 42.1 °F 50% 30.10 in 10.0 mi SE 4.6 mph - N/A   Clear
2:34 PM 61.2 °F - 42.1 °F 50% 30.09 in 10.0 mi SSE 4.6 mph - N/A   Clear
2:54 PM 61.0 °F - 41.9 °F 49% 30.09 in 10.0 mi SSE 5.8 mph - N/A   Clear
3:14 PM 61.5 °F - 41.7 °F 48% 30.09 in 10.0 mi SSE 3.5 mph - N/A   Clear
3:34 PM 61.9 °F - 41.7 °F 48% 30.08 in 10.0 mi SE 6.9 mph - N/A   Clear
3:53 PM 61.3 °F - 42.3 °F 50% 30.08 in 10.0 mi SSE 4.6 mph - N/A   Clear
4:14 PM 61.3 °F - 42.1 °F 49% 30.07 in 10.0 mi SSE 3.5 mph - N/A   Clear
4:34 PM 62.1 °F - 42.8 °F 49% 30.07 in 10.0 mi South 8.1 mph - N/A   Clear
4:53 PM 62.2 °F - 42.8 °F 49% 30.07 in 10.0 mi South 6.9 mph - N/A   Clear
5:14 PM 60.6 °F - 42.4 °F 51% 30.06 in 10.0 mi South 6.9 mph - N/A   Clear
5:34 PM 58.8 °F - 42.4 °F 55% 30.07 in 10.0 mi South 6.9 mph - N/A   Clear
5:53 PM 56.8 °F - 42.8 °F 59% 30.06 in 10.0 mi SE 5.8 mph - N/A   Clear
6:14 PM 54.9 °F - 42.4 °F 63% 30.05 in 5.0 mi SSE 6.9 mph - N/A   Haze
6:34 PM 54.5 °F - 41.5 °F 62% 30.05 in 10.0 mi SSE 4.6 mph - N/A   Clear
6:53 PM 53.4 °F - 41.0 °F 63% 30.06 in 10.0 mi SSE 5.8 mph - N/A   Clear
7:14 PM 52.0 °F - 41.0 °F 66% 30.05 in 10.0 mi North - - N/A   Clear
7:34 PM 51.8 °F - 41.0 °F 67% 30.05 in 10.0 mi SSE 3.5 mph - N/A   Clear
7:54 PM 50.9 °F - 40.8 °F 68% 30.05 in 10.0 mi SE 3.5 mph - N/A   Scattered Clouds
8:14 PM 51.3 °F - 41.0 °F 68% 30.05 in 10.0 mi SSE 4.6 mph - N/A   Mostly Cloudy
8:34 PM 50.9 °F - 41.2 °F 69% 30.04 in 10.0 mi SSE 3.5 mph - N/A   Scattered Clouds
8:54 PM 51.6 °F - 41.4 °F 68% 30.04 in 10.0 mi South 6.9 mph - N/A   Scattered Clouds
9:14 PM 52.0 °F - 41.9 °F 69% 30.03 in 10.0 mi SSE 5.8 mph - N/A   Mostly Cloudy
9:34 PM 51.4 °F - 41.9 °F 70% 30.02 in 10.0 mi SE 4.6 mph - N/A   Scattered Clouds
9:54 PM 50.7 °F - 42.1 °F 72% 30.01 in 10.0 mi SE 4.6 mph - N/A   Scattered Clouds
10:14 PM 50.9 °F - 42.6 °F 73% 30.00 in 10.0 mi Calm Calm - N/A   Overcast
10:34 PM 51.4 °F - 43.2 °F 73% 30.00 in 10.0 mi SSE 5.8 mph - N/A   Overcast
10:54 PM 52.5 °F - 44.6 °F 74% 29.99 in 10.0 mi SSE 6.9 mph - N/A   Overcast
11:14 PM 52.9 °F - 45.5 °F 76% 29.98 in 10.0 mi South 5.8 mph - N/A   Overcast
11:34 PM 53.1 °F - 46.4 °F 78% 29.95 in 10.0 mi North - - N/A   Overcast
11:54 PM 52.3 °F - 47.8 °F 85% 29.95 in 10.0 mi South 6.9 mph - N/A Rain Rain